#timestamp,LO_Frequency,Hit,StdDev 
1458424815.4,286046994.1,N
1458424835.2,286046995.9,N
1458424855.0,286046994.7,N
1458424856.0,286046994.7,N
1458424875.8,286046990.8,N
1458424895.6,286046992.2,N
1458424915.5,286046990.1,Y
1458424935.3,286046995.3,P
1458424955.1,286046996.3,P
1458424975.8,286046993.3,P
1458424995.7,286046994.8,Y
1458425015.5,286046994.9,P
1458425035.4,286046997.7,P
1458425055.2,286046993.4,P
1458425075.0,286046993.3,Y
1458425075.9,286046993.3,P
1458425095.8,286047000.7,N
1458425115.6,286046998.0,N
1458425135.4,286046996.1,N
1458425155.2,286046996.1,N
1458425175.1,286046993.5,N
1458425176.0,286046993.5,N
1458425195.8,286046997.4,N
1458425215.6,286046997.6,N
1458425235.5,286046999.4,N
1458425255.3,286046996.6,N
1458425275.1,286046997.8,N
1458425295.9,286046995.3,N
1458425315.7,286046997.0,N
1458425335.5,286046997.1,N
1458425355.4,286046996.6,N
1458425375.2,286046998.0,N
1458425395.0,286046997.3,N
1458425395.9,286046997.3,N
1458425415.8,286046997.3,N
1458425435.6,286046997.7,N
1458425455.4,286046996.9,N
1458425475.3,286046998.9,N
1458425495.1,286046999.5,N
1458425496.0,286046999.5,N
1458425515.8,286046998.1,N
1458425535.6,286046999.0,N
1458425555.5,286046999.5,N
1458425575.3,286046998.9,N
1458425595.1,286046998.9,N
1458425615.9,286047000.8,N
1458425635.7,286046997.3,N
1458425655.5,286046998.3,N
1458425675.4,286046999.0,N
1458425695.2,286046996.7,N
1458425715.0,286046996.5,N
1458425715.9,286046996.5,N
1458425735.8,286046998.8,N
1458425755.6,286046996.8,N
1458425775.4,286046995.7,Y
1458425795.3,286046995.8,P
1458425815.1,286046995.8,P
1458425816.0,286046995.8,P
1458425835.8,286046995.6,Y
1458425855.7,286047000.8,P
1458425875.5,286046998.1,N
1458425895.3,286046999.4,N
1458425915.2,286047001.4,N
1458425935.9,286047004.9,N
1458425955.7,286047004.2,N
1458425975.6,286047001.4,N
1458425995.4,286047004.4,N
1458426015.2,286047005.3,N
1458426035.1,286047006.7,N
1458426036.0,286047006.7,N
1458426055.8,286047010.2,Y
1458426075.6,286047006.2,P
1458426095.5,286047004.8,N
1458426115.3,286047005.4,P
1458426135.1,286047002.8,N
1458426155.9,286046998.1,N
1458426175.7,286047001.3,N
1458426195.5,286047000.9,N
1458426215.3,286046996.8,N
1458426235.2,286046995.6,N
1458426255.0,286046998.5,N
1458426255.9,286046998.5,N
1458426275.7,286046996.8,N
1458426295.6,286046995.0,N
1458426315.4,286046998.7,N
1458426335.2,286046996.8,N
1458426355.1,286046995.4,N
1458426356.0,286046995.4,N
1458426375.8,286046993.7,N
1458426395.6,286046994.2,N
1458426415.5,286046993.4,N
1458426435.3,286046996.3,N
1458426455.1,286046994.6,N
1458426475.8,286046994.8,N
1458426495.7,286046991.9,N
1458426515.5,286046989.1,N
1458426535.3,286046990.2,N
1458426555.2,286046996.3,N
1458426575.9,286046996.3,N
1458426595.7,286046995.7,N
1458426615.6,286046996.4,N
1458426635.4,286046994.2,N
1458426655.2,286046993.2,N
1458426675.1,286046990.8,N
1458426676.0,286046990.8,Y
1458426695.8,286046993.4,P
1458426715.6,286046995.5,P
1458426735.5,286046994.2,P
1458426755.3,286046991.9,Y
1458426775.1,286047000.7,P
1458426795.9,286046999.1,N
1458426815.7,286046997.7,N
1458426835.5,286046996.1,N
1458426855.4,286046997.4,N
1458426875.2,286046996.6,N
1458426895.0,286047000.7,N
1458426895.9,286047000.7,N
1458426915.8,286046998.2,N
1458426935.6,286046999.4,N
1458426955.4,286046997.4,N
1458426975.2,286046996.6,N
1458426995.1,286047000.7,N
1458426996.0,286047000.7,N
1458427015.8,286047000.9,N
1458427035.6,286046998.2,N
1458427055.5,286047001.8,N
1458427075.3,286047000.1,N
1458427095.1,286046998.6,N
1458427115.9,286046999.8,N
1458427135.7,286046999.0,N
1458427155.5,286046998.6,N
1458427175.4,286046999.6,N
1458427195.2,286046995.7,N
1458427215.0,286046995.2,N
1458427215.9,286046995.2,N
1458427235.8,286046999.1,N
1458427255.6,286047002.0,N
1458427275.4,286046998.7,N
1458427295.2,286046999.2,N
1458427315.1,286046999.0,N
1458427316.0,286046999.0,N
1458427335.8,286047001.1,N
1458427355.6,286046999.1,N
1458427375.5,286046997.9,N
1458427395.3,286046996.6,N
1458427415.1,286046997.0,N
1458427435.9,286046997.3,N
1458427455.7,286046995.8,N
1458427475.5,286046997.4,N
1458427495.4,286046996.6,N
1458427515.2,286046999.5,N
1458427535.0,286046999.3,N
1458427535.9,286046999.3,N
1458427555.8,286046998.3,N
1458427575.6,286047003.3,N
1458427595.4,286047010.3,Y
1458427615.3,286047013.0,P
1458427635.1,286047015.1,N
1458427636.0,286047015.1,N
1458427655.8,286047016.8,N
1458427675.7,286047018.8,N
1458427695.5,286047021.6,Y
1458427715.3,286047008.3,P
1458427735.2,286047008.3,P
1458427755.9,286047006.9,P
1458427775.7,286047007.0,Y
1458427795.6,286046999.3,P
1458427815.4,286047000.9,N
1458427835.2,286046999.6,N
1458427855.1,286046995.4,N
1458427856.0,286046995.4,N
1458427875.8,286046997.5,N
1458427895.6,286046997.8,N
1458427915.5,286046997.0,N
1458427935.3,286046995.0,N
1458427955.1,286046996.7,N
1458427975.8,286046999.5,N
1458427995.7,286047000.8,N
1458428015.5,286047005.7,N
1458428035.3,286047005.4,N
1458428055.2,286047002.9,N
1458428075.9,286047003.1,N
1458428095.7,286047004.9,N
1458428115.6,286047003.6,N
1458428135.4,286047004.3,N
1458428155.2,286047007.6,N
1458428175.1,286047008.7,N
1458428176.0,286047008.7,N
1458428195.8,286047006.5,N
1458428215.6,286047009.9,N
1458428235.4,286047007.8,N
1458428255.3,286047010.4,N
1458428275.1,286047010.6,N
1458428295.8,286047010.4,N
1458428315.7,286047009.8,N
1458428335.5,286047010.6,N
1458428355.3,286047011.7,N
1458428375.2,286047009.5,N
1458428395.9,286047007.9,N
